Terug naar catalogus

COSMOS 1275 DEB

ActiefPO
NORAD 42146·DEBRIS·🇷🇺 Russia

Gelanceerd Jun 4, 1981 vanaf Plesetsk Cosmodrome

Loading…

Volgende Passages (komende 24 uur)

TLE

VerouderendSource: Space-Track

Epoch: Sep 9, 2026, 05:37 UTC

1 42146U 81053RJ  26252.23450321  .00001018  00000-0  84654-3 0  9991
2 42146  83.0009  80.0556 0096145 345.5116  14.3292 13.85661819644051

Volg COSMOS 1275 DEB in realtime met AllMySat

Download on the App Store